TimeMST,TemperatureF,Dew PointF,Humidity,Sea Level PressureIn,VisibilityMPH,Wind Direction,Wind SpeedMPH,Gust SpeedMPH,PrecipitationIn,Events,Conditions,WindDirDegrees,DateUTC
12:54 AM,28.0,19.0,69,30.12,10.0,Calm,Calm,-,N/A,,Clear,0,2013-03-20 07:54:00
1:54 AM,25.0,19.0,78,30.14,10.0,Calm,Calm,-,N/A,,Clear,0,2013-03-20 08:54:00
2:54 AM,27.0,19.9,75,30.12,10.0,Calm,Calm,-,N/A,,Clear,0,2013-03-20 09:54:00
3:54 AM,27.0,19.9,75,30.08,10.0,Calm,Calm,-,N/A,,Clear,0,2013-03-20 10:54:00
4:54 AM,27.0,19.9,75,30.07,10.0,Calm,Calm,-,N/A,,Clear,0,2013-03-20 11:54:00
5:54 AM,30.0,21.9,72,30.06,10.0,Calm,Calm,-,N/A,,Clear,0,2013-03-20 12:54:00
6:54 AM,32.0,24.1,73,30.06,10.0,ESE,4.6,-,N/A,,Mostly Cloudy,110,2013-03-20 13:54:00
7:54 AM,39.0,26.1,60,30.08,10.0,Calm,Calm,-,N/A,,Clear,0,2013-03-20 14:54:00
8:54 AM,48.9,23.0,36,30.05,10.0,South,8.1,-,N/A,,Clear,190,2013-03-20 15:54:00
9:54 AM,53.1,23.0,31,30.02,10.0,SSW,15.0,25.3,N/A,,Clear,200,2013-03-20 16:54:00
10:54 AM,55.9,19.9,25,30.01,10.0,SW,20.7,31.1,N/A,,Clear,230,2013-03-20 17:54:00
11:54 AM,57.9,21.0,24,30.01,10.0,SW,23.0,32.2,N/A,,Clear,220,2013-03-20 18:54:00
12:54 PM,57.9,19.9,23,29.99,10.0,SW,19.6,32.2,N/A,,Partly Cloudy,230,2013-03-20 19:54:00
1:54 PM,57.0,18.0,22,29.96,10.0,West,15.0,27.6,N/A,,Partly Cloudy,260,2013-03-20 20:54:00
2:54 PM,57.0,19.0,23,29.94,10.0,WSW,20.7,27.6,N/A,,Mostly Cloudy,250,2013-03-20 21:54:00
3:54 PM,55.9,19.0,24,29.94,10.0,West,18.4,27.6,N/A,,Partly Cloudy,260,2013-03-20 22:54:00
4:54 PM,55.0,21.9,28,29.94,10.0,WSW,18.4,31.1,N/A,,Clear,240,2013-03-20 23:54:00
5:54 PM,53.1,21.9,30,29.92,10.0,WSW,9.2,20.7,N/A,,Clear,250,2013-03-21 00:54:00
6:54 PM,50.0,23.0,35,29.93,10.0,West,5.8,-,N/A,,Clear,260,2013-03-21 01:54:00
7:54 PM,48.9,24.1,38,29.90,10.0,WSW,8.1,-,N/A,,Clear,240,2013-03-21 02:54:00
8:54 PM,46.9,25.0,42,29.87,10.0,SW,8.1,-,N/A,,Clear,220,2013-03-21 03:54:00
9:54 PM,46.0,25.0,44,29.84,10.0,WSW,8.1,-,N/A,,Partly Cloudy,240,2013-03-21 04:54:00
11:54 PM,44.1,26.1,49,29.79,10.0,SW,9.2,-,N/A,,Clear,230,2013-03-21 06:54:00